Regional Weather Roundup
Issued by NWS Newport/Morehead, NC

Home | Current Version | Previous Version | Text Only | Print | Product List | Glossary On
Versions: 1 2 3 4 5 6 7 8 9 10 11 12 13 14 15 16 17 18 19 20 21 22 23 24 25 26 27 28 29 30 31 32 33 34 35 36 37 38 39 40 41 42 43 44 45 46 47 48 49 50
446
ASUS42 KMHX 201025
RWRMHX
WEATHER ROUNDUP FOR EASTERN NORTH CAROLINA
NATIONAL WEATHER SERVICE NEWPORT/MOREHEAD CITY NC
600 AM EDT WED SEP 20 2017

NOTE: "FAIR" INDICATES FEW OR NO CLOUDS BELOW 12,000 FEET
WITH NO SIGNIFICANT WEATHER AND/OR OBSTRUCTIONS TO VISIBILITY

NCZ015>017-031-032-045>047-102-103-201100-
NORTH COAST

CITY           SKY/WX    TMP DP  RH WIND       PRES   REMARKS
EDENTON        MOCLDY    71  66  84 CALM      29.94R
ELIZABETH CITY CLEAR     69  67  93 W7        29.91R
KITTY HAWK     SUNNY     70  66  86 CALM      29.89R
MANTEO         PTCLDY    71  68  90 W5        29.91R

$$

NCZ045>047-081-094-103-104-201100-
CENTRAL COAST

CITY           SKY/WX    TMP DP  RH WIND       PRES   REMARKS
FRISCO         PTCLDY    73  69  87 W8        29.92R

$$

NCZ095-097-098-100-101-201100-
SOUTHERN COAST

CITY           SKY/WX    TMP DP  RH WIND       PRES   REMARKS
BEAUFORT       CLEAR     68  67  96 CALM      29.96R
CEDAR ISLAND   NOT AVBL
JACKSONVILLE   CLEAR     66  66 100 CALM      29.97R
PINEY ISLAND     N/A    N/A N/A N/A W8        29.95R
WILMINGTON     CLEAR     69  66  90 CALM      29.98R


$$

NCZ011>013-027>030-043-044-078>080-089-090>093-098-201100-
COASTAL PLAIN

CITY           SKY/WX    TMP DP  RH WIND       PRES   REMARKS
AHOSKIE          N/A     63  63 100 CALM      29.95R
CLINTON        CLEAR     64  64 100 CALM      29.99R
ELIZABETHTOWN  NOT AVBL
GOLDSBORO      CLEAR     64  64 100 CALM      29.96R FOG
GREENVILLE     CLEAR     64  64 100 CALM      29.98R
HAVELOCK       CLEAR     66  65  96 SW3       29.97R
KENANSVILLE    CLEAR     63  61  94 CALM      29.98R FOG
KINSTON        CLEAR     64  63  94 CALM      29.98R
NEW BERN       CLEAR     65  65 100 W3        29.97R
RICHLANDS      CLEAR     64  63  96 CALM      29.98R
ROCKY MOUNT    CLEAR     62  62 100 CALM      29.97R FOG
WASHINGTON     CLEAR     65  64  96 CALM      29.96R
WHITEVILLE     CLEAR     66  65  96 CALM      29.98S

$$

AMZ130-135-150-152-154-156-158-170-250-252-270-ANZ085-086-088-633-658-670-201100-
MARINE OBSERVATIONS

STATION/POSITION TIME  TEMP    WIND        PRES    WAVE   SWELL
                       AIR SEA DIR/SP/G            HT/PER HT/PER
                 (UTC) (F)     (DEG/KT/KT) (MB)    (FT/S) (FT/S)
CHESAPEAKE LIGHT NOT AVBL
64 E VA BEACH    0950   70 70  310/ 10/ 12 1011.0   10/10  10/10
DUCK             0954   71 74  290/ 11/ 14 1011.9
2 E DUCK         1000      74                N/A     7/10   3/11
OREGON INLET     0948   71 73  270/  9/ 12 1012.4
13E OREGON INLT  0948      74                N/A     9/11   8/11
HATTERAS CG      0954   74 75  290/ 15/ 17 1013.3
DIAMOND BUOY     0950   75 74  290/ 14/ 16 1013.0    6/11   5/11
CAPE LOOKOUT     1000   75     270/  7/  8 1014.3
BEAUFORT LAB     0954   72 74  310/  3/  5 1014.0
30 SE NEW RVR IN 1008   78     290/  8/ 12 1014.8
30 SE NEW RVR IN NOT AVBL
27 SE WRIGHTSVLE 1008   78 79  290/ 10/ 14 1015.1
5 SE WRIGHTSVLE  1008   75 78  300/ 12/ 16 1014.8
225 S CAPE HAT   0950   78 80  290/  6/  6 1015.1    9/11   8/11
41 SE CHARLESTON 1010   80 82  260/  8/ 10 1015.2

$$




USA.gov is the U.S. government's official web portal to all federal, state and local government web resources and services.